This is the latest recevied weather packets stored in our database for station/object VA3WWD-2. If no packets are shown the sender has not sent any weather packets the latest 10 day(s).
| Time | Temp. | Humidity | Pressure | Rain* | Wind** | Luminosity | Snow |
|---|---|---|---|---|---|---|---|
| 1777575343 | 6.67° C | 40% | - | 0 mm | 0 m/s | - | - |
| 1777575042 | 7.22° C | 41% | - | 0 mm | 0 m/s | - | - |
| 1777574744 | 6.67° C | 42% | - | 0 mm | 0 m/s | - | - |
| 1777574446 | 7.22° C | 41% | - | 0 mm | 0 m/s | - | - |
| 1777574146 | 7.22° C | 39% | - | 0 mm | 0 m/s | - | - |
| 1777573847 | 7.22° C | 39% | - | 0 mm | 0 m/s | - | - |
| 1777573249 | 6.67° C | 41% | - | 0 mm | 0 m/s | - | - |
| 1777572951 | 6.67° C | 43% | - | 0 mm | 0 m/s | - | - |
| 1777572653 | 5.56° C | 44% | - | 0 mm | 0 m/s | - | - |
| 1777572054 | 5.56° C | 44% | - | 0 mm | 0 m/s | - | - |
| 1777571756 | 5.56° C | 45% | - | 0 mm | 0 m/s | - | - |
| 1777571455 | 6.11° C | 45% | - | 0 mm | 0 m/s | - | - |
| 1777571157 | 5.56° C | 46% | - | 0 mm | 0 m/s | - | - |
| 1777570859 | 6.11° C | 48% | - | 0 mm | 0 m/s | - | - |
| 1777570558 | 5.56° C | 50% | - | 0 mm | 0 m/s | - | - |
| 1777570260 | 5.56° C | 48% | - | 0 mm | 0 m/s | - | - |
| 1777569661 | 5° C | 48% | - | 0 mm | 0 m/s | - | - |
| 1777569363 | 4.44° C | 48% | - | 0 mm | 0 m/s | - | - |
| 1777569065 | 5° C | 48% | - | 0 mm | 0 m/s | - | - |
| 1777568764 | 6.11° C | 48% | - | 0 mm | 0 m/s | - | - |
| 1777568466 | 5° C | 49% | - | 0 mm | 0 m/s | - | - |
| 1777568168 | 6.11° C | 51% | - | 0 mm | 0 m/s | - | - |
| 1777567867 | 5° C | 48% | - | 0 mm | 0 m/s | - | - |
| 1777567569 | 6.11° C | 47% | - | 0 mm | 0 m/s | - | - |
| 1777567271 | 5.56° C | 47% | - | 0 mm | 0 m/s | - | - |
* Rain latest hour (hover to see other rain measurements)
** Current wind speed in m/s (hover to see current wind gust speed)